Find Starlink 31468

NORAD ID: 58998 Int'l Des: 2024-036 Owner: SPXS Country: US Constellation: starlink operational
LEOCIRCULAR

实时位置

正在加载3D地球...

关于 Starlink 31468

正在加载描述...

即将过境

Passes for default location (London). Set your location on the main map for personalized predictions.

高度历史

Loading altitude history...

两行轨道根数

1 58998U 24036A 26126.53487042 .00000520 00000-0 29689-4 0 9999
2 58998 53.1598 169.1649 0001048 79.7570 280.3549 15.30189947124191
Epoch: May 6, 2026 • Age: 16 hours

当前状态

高度 475.2 km
速度 7.63 km/s
星下点 8.20°N, 121.1°W
发射日期 Feb 23, 2024
运行时间 2.2 years
类型 internet

技术详情

分类 Payload
质量 730.00 kg
干质量 700.00 kg
总质量 730.00 kg
长度 0.30 m
直径 4.10 m
跨度 29.00 m
形状 Box + pan
制造商 SPXS
平台类型 Starlink V2M
阶段状态 In Orbit
所有者/国家 SPXS/US

Most Searched